Starlink 31059

operational
NORAD ID: 58596 Int'l Des: 2023-200 Owner: SPXS Country: US Constellation: starlink
LEOCIRCULAR

About Starlink 31059

Description loading...

Live Position

Loading 3D Globe...

Upcoming Passes

Altitude History

Altitude vs Time

uPlot chart will show altitude changes over time

Two-Line Element Set

1 58596U 23200H 26063.01806058 .00001086 00000-0 48993-4 0 9997
2 58596 43.0009 44.1546 0001154 255.9856 104.0867 15.27576491124589
Epoch: Mar 4, 2026 • Age: 19 hours

Current Status

Altitude 484.7 km
Velocity 7.62 km/s
Sub-Earth Point -10.43°S, 62.11°W
Launch Date Dec 19, 2023
Age 2.2 years
Type internet

Technical Details

Classification Payload
Mass 730.00 kg
Dry Mass 700.00 kg
Total Mass 730.00 kg
Length 0.30 m
Diameter 4.10 m
Span 29.00 m
Shape Box + pan
Manufacturer SPXS
Bus Type Starlink V2M
Phase Status In Orbit
Owner/State SPXS/US

Large Constellations

Loading constellations...